This is the latest recevied weather packets stored in our database for station/object KD2FGL-13. If no packets are shown the sender has not sent any weather packets the latest 10 day(s).
| Time | Temp. | Humidity | Pressure | Rain* | Wind** | Luminosity | Snow |
|---|---|---|---|---|---|---|---|
| 1787952637 | 30° C | 36% | 1018.4 hPa | 0 mm | - | - | - |
| 1787951725 | 30° C | 37% | 1018.4 hPa | 0 mm | - | - | - |
| 1787951119 | 30° C | 38% | 1018.3 hPa | 0 mm | - | - | - |
| 1787950860 | 30° C | 38% | 1018.3 hPa | 0 mm | - | - | - |
| 1787950552 | 30° C | 39% | 1018.2 hPa | 0 mm | - | - | - |
| 1787950248 | 30° C | 39% | 1018.1 hPa | 0 mm | - | - | - |
| 1787948581 | 29.44° C | 40% | 1018.1 hPa | 0 mm | - | - | - |
| 1787948278 | 29.44° C | 40% | 1018.2 hPa | 0 mm | - | - | - |
| 1787947670 | 29.44° C | 40% | 1018.3 hPa | 0 mm | - | - | - |
| 1787947366 | 29.44° C | 40% | 1018.3 hPa | 0 mm | - | - | - |
| 1787946150 | 29.44° C | 42% | 1018.3 hPa | 0 mm | - | - | - |
| 1787945847 | 29.44° C | 42% | 1018.4 hPa | 0 mm | - | - | - |
| 1787944023 | 28.33° C | 42% | 1018.4 hPa | 0 mm | - | - | - |
| 1787943721 | 28.33° C | 41% | 1018.4 hPa | 0 mm | - | - | - |
| 1787943111 | 28.89° C | 41% | 1018.5 hPa | 0 mm | - | - | - |
| 1787942807 | 28.89° C | 41% | 1018.4 hPa | 0 mm | - | - | - |
| 1787942503 | 28.89° C | 40% | 1018.5 hPa | 0 mm | - | - | - |
| 1787941591 | 29.44° C | 40% | 1018.4 hPa | 0 mm | - | - | - |
| 1787940377 | 29.44° C | 40% | 1018.7 hPa | 0 mm | - | - | - |
| 1787940072 | 29.44° C | 40% | 1018.6 hPa | 0 mm | - | - | - |
| 1787937946 | 28.89° C | 43% | 1018.5 hPa | 0 mm | - | - | - |
| 1787937640 | 28.89° C | 43% | 1018.5 hPa | 0 mm | - | - | - |
| 1787937336 | 28.89° C | 43% | 1018.5 hPa | 0 mm | - | - | - |
| 1787936121 | 28.33° C | 44% | 1018.6 hPa | 0 mm | - | - | - |
| 1787935516 | 28.33° C | 44% | 1018.7 hPa | 0 mm | - | - | - |
* Rain since midnight (hover to see other rain measurements)
** Current wind speed in m/s (hover to see current wind gust speed)